Data supplied by UK-AIR on 15/3/2017
All Data GMT hour ending 
Status: R =Ratified P=Provisional,P*=As supplied
,,Sunderland Wessington Way,,,,,,,,,,,,,,,,,,,,,,,
Date,time,"Nitric oxide",status,unit,"Nitrogen dioxide",status,unit,"Nitrogen oxides as nitrogen dioxide",status,unit
 
01-01-2016,01:00,0.78206,R,ugm-3,9.69893,R,ugm-3,10.89806,R,ugm-3
01-01-2016,02:00,4.99668,R,ugm-3,16.96388,R,ugm-3,24.62535,R,ugm-3
01-01-2016,03:00,1.46651,R,ugm-3,14.97870,R,ugm-3,17.22732,R,ugm-3
01-01-2016,04:00,1.62960,R,ugm-3,14.93519,R,ugm-3,17.43387,R,ugm-3
01-01-2016,05:00,0.68383,R,ugm-3,12.81614,R,ugm-3,13.86467,R,ugm-3
01-01-2016,06:00,0.94483,R,ugm-3,14.64019,R,ugm-3,16.08891,R,ugm-3
01-01-2016,07:00,1.17277,R,ugm-3,17.60169,R,ugm-3,19.39992,R,ugm-3
01-01-2016,08:00,6.09368,R,ugm-3,28.99063,R,ugm-3,38.33415,R,ugm-3
01-01-2016,09:00,14.27254,R,ugm-3,38.33272,R,ugm-3,60.21698,R,ugm-3
01-01-2016,10:00,23.33137,R,ugm-3,45.96455,R,ugm-3,81.73882,R,ugm-3
01-01-2016,11:00,28.60994,R,ugm-3,55.66666,R,ugm-3,99.53463,R,ugm-3
01-01-2016,12:00,3.91029,R,ugm-3,24.94091,R,ugm-3,30.93660,R,ugm-3
01-01-2016,13:00,2.93303,R,ugm-3,18.36861,R,ugm-3,22.86585,R,ugm-3
01-01-2016,14:00,2.57412,R,ugm-3,16.79797,R,ugm-3,20.74489,R,ugm-3
01-01-2016,15:00,2.21552,R,ugm-3,12.53644,R,ugm-3,15.93352,R,ugm-3
01-01-2016,16:00,2.05274,R,ugm-3,10.56178,R,ugm-3,13.70928,R,ugm-3
01-01-2016,17:00,1.69508,R,ugm-3,9.50608,R,ugm-3,12.10517,R,ugm-3
01-01-2016,18:00,1.56380,R,ugm-3,9.03513,R,ugm-3,11.43293,R,ugm-3
01-01-2016,19:00,1.69446,R,ugm-3,8.21419,R,ugm-3,10.81232,R,ugm-3
01-01-2016,20:00,1.46620,R,ugm-3,7.83982,R,ugm-3,10.08796,R,ugm-3
01-01-2016,21:00,1.49863,R,ugm-3,6.23810,R,ugm-3,8.53597,R,ugm-3
01-01-2016,22:00,1.33586,R,ugm-3,5.55629,R,ugm-3,7.60458,R,ugm-3
01-01-2016,23:00,2.24857,R,ugm-3,6.84723,R,ugm-3,10.29499,R,ugm-3
01-01-2016,24:00,1.17340,R,ugm-3,7.30575,R,ugm-3,9.10493,R,ugm-3
02-01-2016,01:00,1.00408,R,ugm-3,5.77193,R,ugm-3,7.31149,R,ugm-3
02-01-2016,02:00,1.00408,R,ugm-3,5.84078,R,ugm-3,7.38034,R,ugm-3
02-01-2016,03:00,0.85128,R,ugm-3,7.12741,R,ugm-3,8.43269,R,ugm-3
02-01-2016,04:00,0.78580,R,ugm-3,8.62442,R,ugm-3,9.82929,R,ugm-3
02-01-2016,05:00,0.98225,R,ugm-3,8.99544,R,ugm-3,10.50154,R,ugm-3
02-01-2016,06:00,1.14596,R,ugm-3,9.62418,R,ugm-3,11.38129,R,ugm-3
02-01-2016,07:00,2.25917,R,ugm-3,11.38368,R,ugm-3,14.84769,R,ugm-3
02-01-2016,08:00,3.33965,R,ugm-3,14.74490,R,ugm-3,19.86562,R,ugm-3
02-01-2016,09:00,6.54833,R,ugm-3,19.55053,R,ugm-3,29.59116,R,ugm-3
02-01-2016,10:00,5.89349,R,ugm-3,19.41713,R,ugm-3,28.45370,R,ugm-3
02-01-2016,11:00,8.87298,R,ugm-3,25.71213,R,ugm-3,39.31718,R,ugm-3
02-01-2016,12:00,10.77200,R,ugm-3,25.33537,R,ugm-3,41.85219,R,ugm-3
02-01-2016,13:00,19.08837,R,ugm-3,31.82830,R,ugm-3,61.09673,R,ugm-3
02-01-2016,14:00,15.81421,R,ugm-3,35.76232,R,ugm-3,60.01043,R,ugm-3
02-01-2016,15:00,11.16489,R,ugm-3,30.47521,R,ugm-3,47.59448,R,ugm-3
02-01-2016,16:00,17.41855,R,ugm-3,31.95692,R,ugm-3,58.66498,R,ugm-3
02-01-2016,17:00,22.75543,R,ugm-3,43.17421,R,ugm-3,78.06538,R,ugm-3
02-01-2016,18:00,18.69547,R,ugm-3,43.34681,R,ugm-3,72.01280,R,ugm-3
02-01-2016,19:00,15.15937,R,ugm-3,34.07645,R,ugm-3,57.32049,R,ugm-3
02-01-2016,20:00,16.27259,R,ugm-3,41.11158,R,ugm-3,66.06253,R,ugm-3
02-01-2016,21:00,20.07062,R,ugm-3,41.18664,R,ugm-3,71.96116,R,ugm-3
02-01-2016,22:00,8.90572,R,ugm-3,25.14459,R,ugm-3,38.79984,R,ugm-3
02-01-2016,23:00,9.10217,R,ugm-3,22.72241,R,ugm-3,36.67888,R,ugm-3
02-01-2016,24:00,23.99961,R,ugm-3,32.36906,R,ugm-3,69.16795,R,ugm-3
03-01-2016,01:00,31.72715,R,ugm-3,39.86288,R,ugm-3,88.51050,R,ugm-3
03-01-2016,02:00,8.50160,R,ugm-3,22.86585,R,ugm-3,35.90145,R,ugm-3
03-01-2016,03:00,2.66236,R,ugm-3,11.39993,R,ugm-3,15.48217,R,ugm-3
03-01-2016,04:00,1.74185,R,ugm-3,12.19028,R,ugm-3,14.86108,R,ugm-3
03-01-2016,05:00,1.54447,R,ugm-3,10.05927,R,ugm-3,12.42743,R,ugm-3
03-01-2016,06:00,2.36644,R,ugm-3,12.63063,R,ugm-3,16.25912,R,ugm-3
03-01-2016,07:00,2.59626,R,ugm-3,17.30095,R,ugm-3,21.28182,R,ugm-3
03-01-2016,08:00,7.39462,R,ugm-3,20.50726,R,ugm-3,31.84552,R,ugm-3
03-01-2016,09:00,4.50275,R,ugm-3,21.93781,R,ugm-3,28.84193,R,ugm-3
03-01-2016,10:00,5.02849,R,ugm-3,24.13479,R,ugm-3,31.84504,R,ugm-3
03-01-2016,11:00,4.63434,R,ugm-3,21.99518,R,ugm-3,29.10108,R,ugm-3
03-01-2016,12:00,4.07524,R,ugm-3,21.86848,R,ugm-3,28.11710,R,ugm-3
03-01-2016,13:00,3.02377,R,ugm-3,17.21537,R,ugm-3,21.85175,R,ugm-3
03-01-2016,14:00,2.79395,R,ugm-3,17.72266,R,ugm-3,22.00666,R,ugm-3
03-01-2016,15:00,3.35212,R,ugm-3,17.38463,R,ugm-3,22.52447,R,ugm-3
03-01-2016,16:00,3.15505,R,ugm-3,16.13337,R,ugm-3,20.97104,R,ugm-3
03-01-2016,17:00,1.87313,R,ugm-3,9.14127,R,ugm-3,12.01337,R,ugm-3
03-01-2016,18:00,2.95828,R,ugm-3,9.13458,R,ugm-3,13.67055,R,ugm-3
03-01-2016,19:00,4.60098,R,ugm-3,11.74179,R,ugm-3,18.79653,R,ugm-3
03-01-2016,20:00,1.21612,R,ugm-3,9.78578,R,ugm-3,11.65047,R,ugm-3
03-01-2016,21:00,1.34740,R,ugm-3,14.50440,R,ugm-3,16.57038,R,ugm-3
03-01-2016,22:00,0.65733,R,ugm-3,12.92133,R,ugm-3,13.92922,R,ugm-3
03-01-2016,23:00,5.62002,R,ugm-3,24.16013,R,ugm-3,32.77738,R,ugm-3
03-01-2016,24:00,6.60601,R,ugm-3,27.67101,R,ugm-3,37.80008,R,ugm-3
04-01-2016,01:00,3.17022,R,ugm-3,12.67541,R,ugm-3,17.53635,R,ugm-3
04-01-2016,02:00,0.88101,R,ugm-3,8.79878,R,ugm-3,10.14964,R,ugm-3
04-01-2016,03:00,1.25447,R,ugm-3,11.12549,R,ugm-3,13.04899,R,ugm-3
04-01-2016,04:00,2.04713,R,ugm-3,12.80945,R,ugm-3,15.94834,R,ugm-3
04-01-2016,05:00,3.36833,R,ugm-3,20.36287,R,ugm-3,25.52757,R,ugm-3
04-01-2016,06:00,5.87759,R,ugm-3,30.49625,R,ugm-3,39.50843,R,ugm-3
04-01-2016,07:00,24.83312,R,ugm-3,58.96094,R,ugm-3,97.03786,R,ugm-3
04-01-2016,08:00,37.84339,R,ugm-3,70.54591,R,ugm-3,128.57164,R,ugm-3
04-01-2016,09:00,38.63637,R,ugm-3,63.22008,R,ugm-3,122.46168,R,ugm-3
04-01-2016,10:00,15.38825,R,ugm-3,36.52301,R,ugm-3,60.11800,R,ugm-3
04-01-2016,11:00,13.50608,R,ugm-3,36.30164,R,ugm-3,57.01067,R,ugm-3
04-01-2016,12:00,13.30776,R,ugm-3,32.61912,R,ugm-3,53.02406,R,ugm-3
04-01-2016,13:00,19.48283,R,ugm-3,35.68151,R,ugm-3,65.55476,R,ugm-3
04-01-2016,14:00,8.05756,R,ugm-3,26.79126,R,ugm-3,39.14601,R,ugm-3
04-01-2016,15:00,31.93244,R,ugm-3,53.87465,R,ugm-3,102.83704,R,ugm-3
04-01-2016,16:00,48.41052,R,ugm-3,76.50574,R,ugm-3,150.73417,R,ugm-3
04-01-2016,17:00,39.52787,R,ugm-3,84.79212,R,ugm-3,145.40068,R,ugm-3
04-01-2016,18:00,14.33148,R,ugm-3,40.21462,R,ugm-3,62.18924,R,ugm-3
04-01-2016,19:00,13.24196,R,ugm-3,40.27964,R,ugm-3,60.58370,R,ugm-3
04-01-2016,20:00,11.45863,R,ugm-3,31.88090,R,ugm-3,49.45056,R,ugm-3
04-01-2016,21:00,7.03353,R,ugm-3,23.39083,R,ugm-3,34.17542,R,ugm-3
04-01-2016,22:00,5.11861,R,ugm-3,18.40447,R,ugm-3,26.25289,R,ugm-3
04-01-2016,23:00,5.64653,R,ugm-3,24.01622,R,ugm-3,32.67411,R,ugm-3
04-01-2016,24:00,2.41072,R,ugm-3,17.27466,R,ugm-3,20.97104,R,ugm-3
05-01-2016,01:00,2.12124,R,ugm-3,11.67454,R,ugm-3,14.92706,R,ugm-3
05-01-2016,02:00,2.20980,R,ugm-3,20.86729,R,ugm-3,24.25560,R,ugm-3
05-01-2016,03:00,1.59124,R,ugm-3,19.74274,R,ugm-3,22.18261,R,ugm-3
05-01-2016,04:00,1.55788,R,ugm-3,23.73317,R,ugm-3,26.12188,R,ugm-3
05-01-2016,05:00,3.41448,R,ugm-3,26.01717,R,ugm-3,31.25264,R,ugm-3
05-01-2016,06:00,6.29793,R,ugm-3,29.94067,R,ugm-3,39.59736,R,ugm-3
05-01-2016,07:00,18.26390,R,ugm-3,46.47375,R,ugm-3,74.47801,R,ugm-3
05-01-2016,08:00,28.07548,R,ugm-3,53.61263,R,ugm-3,96.66110,R,ugm-3
05-01-2016,09:00,57.17873,R,ugm-3,87.97500,R,ugm-3,175.64783,R,ugm-3
05-01-2016,10:00,47.73199,R,ugm-3,72.39912,R,ugm-3,145.58715,R,ugm-3
05-01-2016,11:00,45.47781,R,ugm-3,72.95279,R,ugm-3,142.68445,R,ugm-3
05-01-2016,12:00,31.22429,R,ugm-3,54.64060,R,ugm-3,102.51717,R,ugm-3
05-01-2016,13:00,22.04260,R,ugm-3,39.38411,R,ugm-3,73.18229,R,ugm-3
05-01-2016,14:00,27.44590,R,ugm-3,60.64155,R,ugm-3,102.72468,R,ugm-3
05-01-2016,15:00,37.68811,R,ugm-3,66.91216,R,ugm-3,124.69978,R,ugm-3
05-01-2016,16:00,46.57169,R,ugm-3,79.67188,R,ugm-3,151.08081,R,ugm-3
05-01-2016,17:00,94.00495,R,ugm-3,100.59654,R,ugm-3,244.73545,R,ugm-3
05-01-2016,18:00,123.63830,R,ugm-3,109.89034,R,ugm-3,299.46642,R,ugm-3
05-01-2016,19:00,49.52155,R,ugm-3,83.96018,R,ugm-3,159.89217,R,ugm-3
05-01-2016,20:00,28.60558,R,ugm-3,57.72308,R,ugm-3,101.58435,R,ugm-3
05-01-2016,21:00,17.70043,R,ugm-3,45.41996,R,ugm-3,72.56025,R,ugm-3
05-01-2016,22:00,6.89476,R,ugm-3,27.15893,R,ugm-3,37.73076,R,ugm-3
05-01-2016,23:00,8.18728,R,ugm-3,32.17494,R,ugm-3,44.72859,R,ugm-3
05-01-2016,24:00,2.12135,R,ugm-3,20.07073,R,ugm-3,23.32342,R,ugm-3
06-01-2016,01:00,2.53119,R,ugm-3,25.16978,R,ugm-3,29.05088,R,ugm-3
06-01-2016,02:00,2.04266,R,ugm-3,25.01933,R,ugm-3,28.15136,R,ugm-3
06-01-2016,03:00,2.59781,R,ugm-3,24.96434,R,ugm-3,28.94760,R,ugm-3
06-01-2016,04:00,1.96481,R,ugm-3,22.35521,R,ugm-3,25.36788,R,ugm-3
06-01-2016,05:00,3.56354,R,ugm-3,22.44606,R,ugm-3,27.91007,R,ugm-3
06-01-2016,06:00,11.55592,R,ugm-3,27.88138,R,ugm-3,45.60022,R,ugm-3
06-01-2016,07:00,24.87709,R,ugm-3,37.44053,R,ugm-3,75.58487,R,ugm-3
06-01-2016,08:00,26.44276,R,ugm-3,40.33080,R,ugm-3,80.87580,R,ugm-3
06-01-2016,09:00,29.67296,R,ugm-3,41.81012,R,ugm-3,87.30802,R,ugm-3
06-01-2016,10:00,24.01146,R,ugm-3,30.67411,R,ugm-3,67.49117,R,ugm-3
06-01-2016,11:00,,,,,,,,,
06-01-2016,12:00,36.69993,R,ugm-3,41.20386,R,ugm-3,97.47630,R,ugm-3
06-01-2016,13:00,44.52612,R,ugm-3,43.57344,R,ugm-3,111.84587,R,ugm-3
06-01-2016,14:00,32.70358,R,ugm-3,39.60214,R,ugm-3,89.74693,R,ugm-3
06-01-2016,15:00,16.68482,R,ugm-3,32.31169,R,ugm-3,57.89472,R,ugm-3
06-01-2016,16:00,15.95203,R,ugm-3,37.68868,R,ugm-3,62.14812,R,ugm-3
06-01-2016,17:00,19.18254,R,ugm-3,43.21389,R,ugm-3,72.62671,R,ugm-3
06-01-2016,18:00,7.82618,R,ugm-3,31.26507,R,ugm-3,43.26505,R,ugm-3
06-01-2016,19:00,5.86138,R,ugm-3,28.31169,R,ugm-3,37.29901,R,ugm-3
06-01-2016,20:00,4.49589,R,ugm-3,27.55195,R,ugm-3,34.44556,R,ugm-3
06-01-2016,21:00,2.46467,R,ugm-3,20.03248,R,ugm-3,23.81158,R,ugm-3
06-01-2016,22:00,1.43190,R,ugm-3,17.41379,R,ugm-3,19.60934,R,ugm-3
06-01-2016,23:00,1.63209,R,ugm-3,13.52711,R,ugm-3,16.02962,R,ugm-3
06-01-2016,24:00,1.43190,R,ugm-3,11.08437,R,ugm-3,13.27992,R,ugm-3
07-01-2016,01:00,0.93631,R,ugm-3,10.04636,R,ugm-3,11.48201,R,ugm-3
07-01-2016,02:00,0.75753,R,ugm-3,9.07545,R,ugm-3,10.23698,R,ugm-3
07-01-2016,03:00,0.53509,R,ugm-3,8.62107,R,ugm-3,9.44153,R,ugm-3
07-01-2016,04:00,0.70192,R,ugm-3,12.87878,R,ugm-3,13.95503,R,ugm-3
07-01-2016,05:00,0.93610,R,ugm-3,10.28877,R,ugm-3,11.72410,R,ugm-3
07-01-2016,06:00,1.67107,R,ugm-3,12.48145,R,ugm-3,15.04373,R,ugm-3
07-01-2016,07:00,3.47654,R,ugm-3,20.40064,R,ugm-3,25.73125,R,ugm-3
07-01-2016,08:00,4.47937,R,ugm-3,24.62153,R,ugm-3,31.48979,R,ugm-3
07-01-2016,09:00,8.39028,R,ugm-3,30.34898,R,ugm-3,43.21389,R,ugm-3
07-01-2016,10:00,6.95276,R,ugm-3,32.44891,R,ugm-3,43.10966,R,ugm-3
07-01-2016,11:00,7.28735,R,ugm-3,30.89787,R,ugm-3,42.07165,R,ugm-3
07-01-2016,12:00,5.48220,R,ugm-3,39.26936,R,ugm-3,47.67528,R,ugm-3
07-01-2016,13:00,5.44852,R,ugm-3,40.20171,R,ugm-3,48.55598,R,ugm-3
07-01-2016,14:00,2.90839,R,ugm-3,11.36312,R,ugm-3,15.82259,R,ugm-3
07-01-2016,15:00,2.94145,R,ugm-3,12.97201,R,ugm-3,17.48216,R,ugm-3
07-01-2016,16:00,1.03619,R,ugm-3,9.20152,R,ugm-3,10.79033,R,ugm-3
07-01-2016,17:00,2.03902,R,ugm-3,8.80515,R,ugm-3,11.93161,R,ugm-3
07-01-2016,18:00,1.80516,R,ugm-3,8.69709,R,ugm-3,11.46496,R,ugm-3
07-01-2016,19:00,0.93579,R,ugm-3,4.53071,R,ugm-3,5.96557,R,ugm-3
07-01-2016,20:00,1.10293,R,ugm-3,4.37867,R,ugm-3,6.06980,R,ugm-3
07-01-2016,21:00,0.93579,R,ugm-3,2.45565,R,ugm-3,3.89050,R,ugm-3
07-01-2016,22:00,0.90273,R,ugm-3,3.44011,R,ugm-3,4.82428,R,ugm-3
07-01-2016,23:00,1.83821,R,ugm-3,3.71790,R,ugm-3,6.53645,R,ugm-3
07-01-2016,24:00,0.56846,R,ugm-3,3.38226,R,ugm-3,4.25388,R,ugm-3
08-01-2016,01:00,0.22327,R,ugm-3,2.64053,R,ugm-3,2.98286,R,ugm-3
08-01-2016,02:00,0.44653,R,ugm-3,3.19961,R,ugm-3,3.88429,R,ugm-3
08-01-2016,03:00,0.53603,R,ugm-3,9.11402,R,ugm-3,9.93592,R,ugm-3
08-01-2016,04:00,0.73684,R,ugm-3,13.17569,R,ugm-3,14.30550,R,ugm-3
08-01-2016,05:00,0.93766,R,ugm-3,16.30072,R,ugm-3,17.73844,R,ugm-3
08-01-2016,06:00,1.47369,R,ugm-3,23.75038,R,ugm-3,26.01000,R,ugm-3
08-01-2016,07:00,4.35339,R,ugm-3,44.30450,R,ugm-3,50.97960,R,ugm-3
08-01-2016,08:00,6.39647,R,ugm-3,52.45988,R,ugm-3,62.26765,R,ugm-3
08-01-2016,09:00,18.88849,R,ugm-3,65.71398,R,ugm-3,94.67592,R,ugm-3
08-01-2016,10:00,11.42028,R,ugm-3,52.71615,R,ugm-3,70.22700,R,ugm-3
08-01-2016,11:00,31.21275,R,ugm-3,61.59111,R,ugm-3,109.44998,R,ugm-3
08-01-2016,12:00,19.92687,R,ugm-3,58.34798,R,ugm-3,88.90208,R,ugm-3
08-01-2016,13:00,7.66934,R,ugm-3,45.30617,R,ugm-3,57.06565,R,ugm-3
08-01-2016,14:00,6.89882,R,ugm-3,45.13548,R,ugm-3,55.71352,R,ugm-3
08-01-2016,15:00,6.19565,R,ugm-3,43.56053,R,ugm-3,53.06040,R,ugm-3
08-01-2016,16:00,8.90853,R,ugm-3,42.67792,R,ugm-3,56.33747,R,ugm-3
08-01-2016,17:00,29.30375,R,ugm-3,54.47852,R,ugm-3,99.41032,R,ugm-3
08-01-2016,18:00,2.84665,R,ugm-3,23.93398,R,ugm-3,28.29878,R,ugm-3
08-01-2016,19:00,1.40664,R,ugm-3,19.11926,R,ugm-3,21.27608,R,ugm-3
08-01-2016,20:00,1.10542,R,ugm-3,20.98586,R,ugm-3,22.68082,R,ugm-3
08-01-2016,21:00,1.60746,R,ugm-3,31.34827,R,ugm-3,33.81300,R,ugm-3
08-01-2016,22:00,3.18186,R,ugm-3,43.39558,R,ugm-3,48.27437,R,ugm-3
08-01-2016,23:00,3.34900,R,ugm-3,42.72382,R,ugm-3,47.85888,R,ugm-3
08-01-2016,24:00,1.77491,R,ugm-3,39.72693,R,ugm-3,42.44842,R,ugm-3
09-01-2016,01:00,1.34085,R,ugm-3,33.41456,R,ugm-3,35.47050,R,ugm-3
09-01-2016,02:00,19.62086,R,ugm-3,47.25596,R,ugm-3,77.34086,R,ugm-3
09-01-2016,03:00,26.48174,R,ugm-3,58.50577,R,ugm-3,99.11053,R,ugm-3
09-01-2016,04:00,2.54792,R,ugm-3,34.69418,R,ugm-3,38.60094,R,ugm-3
09-01-2016,05:00,14.11258,R,ugm-3,38.14003,R,ugm-3,59.77901,R,ugm-3
09-01-2016,06:00,4.42449,R,ugm-3,41.04942,R,ugm-3,47.83354,R,ugm-3
09-01-2016,07:00,37.17515,R,ugm-3,55.61980,R,ugm-3,112.62091,R,ugm-3
09-01-2016,08:00,65.66785,R,ugm-3,62.32120,R,ugm-3,163.01050,R,ugm-3
09-01-2016,09:00,151.81761,R,ugm-3,89.27359,R,ugm-3,322.05735,R,ugm-3
09-01-2016,10:00,130.16324,R,ugm-3,88.46556,R,ugm-3,288.04641,R,ugm-3
09-01-2016,11:00,67.21014,R,ugm-3,68.40726,R,ugm-3,171.46136,R,ugm-3
09-01-2016,12:00,16.96141,R,ugm-3,44.98774,R,ugm-3,70.99487,R,ugm-3
09-01-2016,13:00,3.51957,R,ugm-3,24.07598,R,ugm-3,29.47258,R,ugm-3
09-01-2016,14:00,3.75437,R,ugm-3,30.28778,R,ugm-3,36.04441,R,ugm-3
09-01-2016,15:00,7.94437,R,ugm-3,46.29398,R,ugm-3,58.47517,R,ugm-3
09-01-2016,16:00,8.98368,R,ugm-3,47.93442,R,ugm-3,61.70920,R,ugm-3
09-01-2016,17:00,15.31934,R,ugm-3,52.04295,R,ugm-3,75.53228,R,ugm-3
09-01-2016,18:00,11.43057,R,ugm-3,37.87133,R,ugm-3,55.39795,R,ugm-3
09-01-2016,19:00,3.58661,R,ugm-3,20.37338,R,ugm-3,25.87278,R,ugm-3
09-01-2016,20:00,2.48057,R,ugm-3,15.34016,R,ugm-3,19.14365,R,ugm-3
09-01-2016,21:00,1.70943,R,ugm-3,11.20247,R,ugm-3,13.82355,R,ugm-3
09-01-2016,22:00,0.90523,R,ugm-3,8.57517,R,ugm-3,9.96317,R,ugm-3
09-01-2016,23:00,0.63675,R,ugm-3,7.31770,R,ugm-3,8.29403,R,ugm-3
09-01-2016,24:00,0.53634,R,ugm-3,8.14964,R,ugm-3,8.97202,R,ugm-3
10-01-2016,01:00,0.62656,R,ugm-3,8.24543,R,ugm-3,9.20614,R,ugm-3
10-01-2016,02:00,0.58207,R,ugm-3,5.73304,R,ugm-3,6.62554,R,ugm-3
10-01-2016,03:00,0.77208,R,ugm-3,4.46569,R,ugm-3,5.64953,R,ugm-3
10-01-2016,04:00,0.53727,R,ugm-3,3.77958,R,ugm-3,4.60339,R,ugm-3
10-01-2016,05:00,0.40257,R,ugm-3,3.14893,R,ugm-3,3.76619,R,ugm-3
10-01-2016,06:00,0.57095,R,ugm-3,2.78603,R,ugm-3,3.66148,R,ugm-3
10-01-2016,07:00,0.57064,R,ugm-3,3.72794,R,ugm-3,4.60291,R,ugm-3
10-01-2016,08:00,0.97414,R,ugm-3,4.36480,R,ugm-3,5.85847,R,ugm-3
10-01-2016,09:00,0.80576,R,ugm-3,6.29691,R,ugm-3,7.53238,R,ugm-3
10-01-2016,10:00,1.20926,R,ugm-3,5.93975,R,ugm-3,7.79392,R,ugm-3
10-01-2016,11:00,1.17558,R,ugm-3,4.99736,R,ugm-3,6.79989,R,ugm-3
10-01-2016,12:00,1.44406,R,ugm-3,6.26009,R,ugm-3,8.47429,R,ugm-3
10-01-2016,13:00,1.37671,R,ugm-3,6.31077,R,ugm-3,8.42169,R,ugm-3
10-01-2016,14:00,1.07486,R,ugm-3,5.98899,R,ugm-3,7.63709,R,ugm-3
10-01-2016,15:00,1.17558,R,ugm-3,5.52043,R,ugm-3,7.32296,R,ugm-3
10-01-2016,16:00,1.51110,R,ugm-3,15.62417,R,ugm-3,17.94116,R,ugm-3
10-01-2016,17:00,1.07424,R,ugm-3,15.09106,R,ugm-3,16.73820,R,ugm-3
10-01-2016,18:00,1.54478,R,ugm-3,17.14174,R,ugm-3,19.51037,R,ugm-3
10-01-2016,19:00,1.00751,R,ugm-3,16.18740,R,ugm-3,17.73222,R,ugm-3
10-01-2016,20:00,1.41070,R,ugm-3,15.67342,R,ugm-3,17.83645,R,ugm-3
10-01-2016,21:00,0.87311,R,ugm-3,15.81781,R,ugm-3,17.15656,R,ugm-3
10-01-2016,22:00,1.07455,R,ugm-3,14.04444,R,ugm-3,15.69206,R,ugm-3
10-01-2016,23:00,1.07455,R,ugm-3,13.46878,R,ugm-3,15.11640,R,ugm-3
10-01-2016,24:00,0.70504,R,ugm-3,11.52473,R,ugm-3,12.60577,R,ugm-3
11-01-2016,01:00,0.85191,R,ugm-3,10.43205,R,ugm-3,11.73829,R,ugm-3
11-01-2016,02:00,0.62822,R,ugm-3,12.24255,R,ugm-3,13.20581,R,ugm-3
11-01-2016,03:00,0.84130,R,ugm-3,13.12071,R,ugm-3,14.41069,R,ugm-3
11-01-2016,04:00,0.77395,R,ugm-3,15.05807,R,ugm-3,16.24478,R,ugm-3
11-01-2016,05:00,7.06564,R,ugm-3,36.27582,R,ugm-3,47.10966,R,ugm-3
11-01-2016,06:00,4.07119,R,ugm-3,36.98918,R,ugm-3,43.23158,R,ugm-3
11-01-2016,07:00,10.56432,R,ugm-3,52.71089,R,ugm-3,68.90929,R,ugm-3
11-01-2016,08:00,93.50197,R,ugm-3,85.52604,R,ugm-3,228.89374,R,ugm-3
11-01-2016,09:00,67.29184,R,ugm-3,67.44288,R,ugm-3,170.62225,R,ugm-3
11-01-2016,10:00,38.92823,R,ugm-3,57.95449,R,ugm-3,117.64361,R,ugm-3
11-01-2016,11:00,8.64691,R,ugm-3,35.63274,R,ugm-3,48.89115,R,ugm-3
11-01-2016,12:00,4.44164,R,ugm-3,23.89764,R,ugm-3,30.70806,R,ugm-3
11-01-2016,13:00,6.52743,R,ugm-3,27.40708,R,ugm-3,37.41567,R,ugm-3
11-01-2016,14:00,4.57603,R,ugm-3,28.40684,R,ugm-3,35.42333,R,ugm-3
11-01-2016,15:00,27.35391,R,ugm-3,53.53518,R,ugm-3,95.47726,R,ugm-3
11-01-2016,16:00,14.70317,R,ugm-3,49.71878,R,ugm-3,72.26333,R,ugm-3
11-01-2016,17:00,23.04730,R,ugm-3,55.37022,R,ugm-3,90.70892,R,ugm-3
11-01-2016,18:00,34.99175,R,ugm-3,52.82899,R,ugm-3,106.48226,R,ugm-3
11-01-2016,19:00,7.13300,R,ugm-3,48.06830,R,ugm-3,59.00541,R,ugm-3
11-01-2016,20:00,24.56152,R,ugm-3,56.55932,R,ugm-3,94.21979,R,ugm-3
11-01-2016,21:00,20.59136,R,ugm-3,53.37166,R,ugm-3,84.94464,R,ugm-3
11-01-2016,22:00,6.22434,R,ugm-3,43.06807,R,ugm-3,52.61192,R,ugm-3
11-01-2016,23:00,3.76841,R,ugm-3,37.66334,R,ugm-3,43.44148,R,ugm-3
11-01-2016,24:00,0.67292,R,ugm-3,20.45323,R,ugm-3,21.48503,R,ugm-3
12-01-2016,01:00,0.89806,R,ugm-3,18.73039,R,ugm-3,20.10739,R,ugm-3
12-01-2016,02:00,0.98786,R,ugm-3,13.82929,R,ugm-3,15.34399,R,ugm-3
12-01-2016,03:00,2.32372,R,ugm-3,13.82977,R,ugm-3,17.39275,R,ugm-3
12-01-2016,04:00,1.88592,R,ugm-3,16.33992,R,ugm-3,19.23162,R,ugm-3
12-01-2016,05:00,2.22269,R,ugm-3,24.33656,R,ugm-3,27.74464,R,ugm-3
12-01-2016,06:00,1.04399,R,ugm-3,16.47475,R,ugm-3,18.07552,R,ugm-3
12-01-2016,07:00,3.19933,R,ugm-3,20.52686,R,ugm-3,25.43243,R,ugm-3
12-01-2016,08:00,9.76636,R,ugm-3,40.77593,R,ugm-3,55.75081,R,ugm-3
12-01-2016,09:00,14.81792,R,ugm-3,51.79002,R,ugm-3,74.51052,R,ugm-3
12-01-2016,10:00,12.39317,R,ugm-3,42.47615,R,ugm-3,61.47875,R,ugm-3
12-01-2016,11:00,3.53610,R,ugm-3,15.07050,R,ugm-3,20.49244,R,ugm-3
12-01-2016,12:00,3.03094,R,ugm-3,13.11306,R,ugm-3,17.76043,R,ugm-3
12-01-2016,13:00,2.92991,R,ugm-3,16.52591,R,ugm-3,21.01838,R,ugm-3
12-01-2016,14:00,14.88528,R,ugm-3,31.56151,R,ugm-3,54.38528,R,ugm-3
12-01-2016,15:00,9.59797,R,ugm-3,49.02168,R,ugm-3,63.73837,R,ugm-3
12-01-2016,16:00,7.50999,R,ugm-3,45.02408,R,ugm-3,56.53924,R,ugm-3
12-01-2016,17:00,5.05157,R,ugm-3,35.39464,R,ugm-3,43.14026,R,ugm-3
12-01-2016,18:00,5.75878,R,ugm-3,31.63036,R,ugm-3,40.46037,R,ugm-3
12-01-2016,19:00,2.32372,R,ugm-3,21.18572,R,ugm-3,24.74871,R,ugm-3
12-01-2016,20:00,1.41444,R,ugm-3,15.11879,R,ugm-3,17.28757,R,ugm-3
12-01-2016,21:00,1.04399,R,ugm-3,12.74394,R,ugm-3,14.34471,R,ugm-3
12-01-2016,22:00,1.01031,R,ugm-3,12.00763,R,ugm-3,13.55676,R,ugm-3
12-01-2016,23:00,0.57251,R,ugm-3,9.52664,R,ugm-3,10.40448,R,ugm-3
12-01-2016,24:00,0.47148,R,ugm-3,7.89432,R,ugm-3,8.61725,R,ugm-3
13-01-2016,01:00,0.49476,R,ugm-3,7.18016,R,ugm-3,7.93879,R,ugm-3
13-01-2016,02:00,0.40537,R,ugm-3,4.36560,R,ugm-3,4.98716,R,ugm-3
13-01-2016,03:00,0.54008,R,ugm-3,4.33564,R,ugm-3,5.16375,R,ugm-3
13-01-2016,04:00,0.40506,R,ugm-3,2.85632,R,ugm-3,3.47740,R,ugm-3
13-01-2016,05:00,1.31559,R,ugm-3,6.09657,R,ugm-3,8.11378,R,ugm-3
13-01-2016,06:00,0.84349,R,ugm-3,4.76595,R,ugm-3,6.05928,R,ugm-3
13-01-2016,07:00,3.67735,R,ugm-3,20.39060,R,ugm-3,26.02913,R,ugm-3
13-01-2016,08:00,5.39831,R,ugm-3,44.41160,R,ugm-3,52.68890,R,ugm-3
13-01-2016,09:00,9.81812,R,ugm-3,53.07379,R,ugm-3,68.12803,R,ugm-3
13-01-2016,10:00,4.55483,R,ugm-3,28.10658,R,ugm-3,35.09055,R,ugm-3
13-01-2016,11:00,5.33096,R,ugm-3,29.92011,R,ugm-3,38.09413,R,ugm-3
13-01-2016,12:00,8.83962,R,ugm-3,36.23757,R,ugm-3,49.79146,R,ugm-3
13-01-2016,13:00,4.55483,R,ugm-3,29.58207,R,ugm-3,36.56604,R,ugm-3
13-01-2016,14:00,4.48716,R,ugm-3,33.26937,R,ugm-3,40.14959,R,ugm-3
13-01-2016,15:00,7.38901,R,ugm-3,51.37071,R,ugm-3,62.70036,R,ugm-3
13-01-2016,16:00,14.57564,R,ugm-3,67.06468,R,ugm-3,89.41368,R,ugm-3
13-01-2016,17:00,19.87261,R,ugm-3,71.74648,R,ugm-3,102.21739,R,ugm-3
13-01-2016,18:00,7.92877,R,ugm-3,52.65065,R,ugm-3,64.80793,R,ugm-3
13-01-2016,19:00,6.57920,R,ugm-3,42.81227,R,ugm-3,52.90023,R,ugm-3
13-01-2016,20:00,5.29728,R,ugm-3,41.40563,R,ugm-3,49.52801,R,ugm-3
13-01-2016,21:00,5.90441,R,ugm-3,47.16655,R,ugm-3,56.21985,R,ugm-3
13-01-2016,22:00,4.55452,R,ugm-3,43.96742,R,ugm-3,50.95091,R,ugm-3
13-01-2016,23:00,1.48460,R,ugm-3,28.07263,R,ugm-3,30.34898,R,ugm-3
13-01-2016,24:00,1.04586,R,ugm-3,26.90123,R,ugm-3,28.50486,R,ugm-3
14-01-2016,01:00,0.90138,R,ugm-3,24.18930,R,ugm-3,25.57140,R,ugm-3
14-01-2016,02:00,1.08183,R,ugm-3,27.01215,R,ugm-3,28.67093,R,ugm-3
14-01-2016,03:00,0.67604,R,ugm-3,21.41761,R,ugm-3,22.45418,R,ugm-3
14-01-2016,04:00,0.43967,R,ugm-3,19.71979,R,ugm-3,20.39394,R,ugm-3
14-01-2016,05:00,2.40012,R,ugm-3,29.23448,R,ugm-3,32.91460,R,ugm-3
14-01-2016,06:00,1.42005,R,ugm-3,21.65046,R,ugm-3,23.82784,R,ugm-3
14-01-2016,07:00,2.09578,R,ugm-3,20.29688,R,ugm-3,23.51036,R,ugm-3
14-01-2016,08:00,5.27327,R,ugm-3,19.75708,R,ugm-3,27.84265,R,ugm-3
14-01-2016,09:00,7.43671,R,ugm-3,21.88139,R,ugm-3,33.28419,R,ugm-3
14-01-2016,10:00,6.65902,R,ugm-3,15.09632,R,ugm-3,25.30668,R,ugm-3
14-01-2016,11:00,6.28733,R,ugm-3,16.98730,R,ugm-3,26.62774,R,ugm-3
14-01-2016,12:00,7.36905,R,ugm-3,22.25003,R,ugm-3,33.54908,R,ugm-3
14-01-2016,13:00,5.34094,R,ugm-3,17.17138,R,ugm-3,25.36071,R,ugm-3
14-01-2016,14:00,6.55799,R,ugm-3,21.75038,R,ugm-3,31.80583,R,ugm-3
14-01-2016,15:00,5.67865,R,ugm-3,22.25242,R,ugm-3,30.95955,R,ugm-3
14-01-2016,16:00,5.84765,R,ugm-3,23.89573,R,ugm-3,32.86201,R,ugm-3
14-01-2016,17:00,5.07028,R,ugm-3,25.45681,R,ugm-3,33.23112,R,ugm-3
14-01-2016,18:00,2.94082,R,ugm-3,19.58304,R,ugm-3,24.09224,R,ugm-3
14-01-2016,19:00,1.82542,R,ugm-3,15.21728,R,ugm-3,18.01623,R,ugm-3
14-01-2016,20:00,1.58875,R,ugm-3,12.14581,R,ugm-3,14.58186,R,ugm-3
14-01-2016,21:00,0.91271,R,ugm-3,7.21204,R,ugm-3,8.61151,R,ugm-3
14-01-2016,22:00,1.52077,R,ugm-3,8.55222,R,ugm-3,10.88404,R,ugm-3
14-01-2016,23:00,1.25073,R,ugm-3,6.48242,R,ugm-3,8.40018,R,ugm-3
14-01-2016,24:00,0.70971,R,ugm-3,5.19865,R,ugm-3,6.28687,R,ugm-3
15-01-2016,01:00,0.76460,R,ugm-3,3.46800,R,ugm-3,4.64036,R,ugm-3
15-01-2016,02:00,0.67479,R,ugm-3,3.46545,R,ugm-3,4.50011,R,ugm-3
15-01-2016,03:00,0.33740,R,ugm-3,3.17379,R,ugm-3,3.69113,R,ugm-3
15-01-2016,04:00,0.54008,R,ugm-3,4.44608,R,ugm-3,5.27420,R,ugm-3
15-01-2016,05:00,0.87716,R,ugm-3,10.99544,R,ugm-3,12.34041,R,ugm-3
15-01-2016,06:00,1.78832,R,ugm-3,26.73818,R,ugm-3,29.48023,R,ugm-3
15-01-2016,07:00,5.43230,R,ugm-3,54.90262,R,ugm-3,63.23203,R,ugm-3
15-01-2016,08:00,38.63138,R,ugm-3,72.92506,R,ugm-3,132.15901,R,ugm-3
15-01-2016,09:00,15.99257,R,ugm-3,43.82589,R,ugm-3,68.34749,R,ugm-3
15-01-2016,10:00,11.60613,R,ugm-3,40.79458,R,ugm-3,58.59039,R,ugm-3
15-01-2016,11:00,3.71103,R,ugm-3,12.03010,R,ugm-3,17.72027,R,ugm-3
15-01-2016,12:00,3.07023,R,ugm-3,11.16661,R,ugm-3,15.87423,R,ugm-3
15-01-2016,13:00,3.61000,R,ugm-3,12.23713,R,ugm-3,17.77238,R,ugm-3
15-01-2016,14:00,1.95701,R,ugm-3,9.02365,R,ugm-3,12.02437,R,ugm-3
15-01-2016,15:00,3.44130,R,ugm-3,14.18358,R,ugm-3,19.46017,R,ugm-3
15-01-2016,16:00,3.27292,R,ugm-3,18.60767,R,ugm-3,23.62607,R,ugm-3
15-01-2016,17:00,2.42912,R,ugm-3,21.85270,R,ugm-3,25.57730,R,ugm-3
15-01-2016,18:00,2.12571,R,ugm-3,21.26365,R,ugm-3,24.52303,R,ugm-3